Location: Brivio
(45.7333°N, 9.4500°E)
Time: 18:08:40
(UTC+00:00)

Cosmos 2061 Rocket - Pass Details

Date: 18 October 2019
Orbit: 965 x 1013 km, 82.9° (Epoch: 21 November)

Event Time Altitude Azimuth Distance (km) Brightness Sun altitude
Rises 18:54:56 0° 352° (N) 3,697 7.3 -25.6°
Reaches altitude 10° 18:57:29 10° 355° (N) 2,739 6.5 -26.0°
Maximum altitude 19:03:45 74° 80° (E) 1,010 3.8 -27.1°
Enters shadow 19:04:10 71° 114° (ESE) 1,023 3.8 -27.2°
